Date String (YYYY-MM-DD hh:mm:ss) UTC,Instrument flags,Ambient pressure (hPa),Sample flow (lpm),Bypass flow (lpm),Sample temperature (°C),Ambient temperature (°C),ASC tube jacket temperature (°C),LED temperature (°C),Box temperature (°C),Sample RH (%),Span deviation,Mass concentration (μg/m³),Mass concentration (μg/m³),Mass concentration (μg/m³)
DateTimeUTC,F1_M11,P_M11,Q1_M11,Q2_M11,T1_M11,T2_M11,T3_M11,T4_M11,T5_M11,U1_M11,ZSPAN_M11,X2_M11,X0_M11,X1_M11
2022-02-26 07:00:00,,0830.1,5.01,0.00,21.6,21.2,00.0,30.7,23.1,07.1,0001.5,0012.12,0016.48,0011.36
2022-02-26 07:01:00,,0830.0,5.00,0.00,21.5,20.9,00.0,30.7,23.0,07.2,0001.2,0012.12,0016.40,0011.35
2022-02-26 07:02:00,,0830.0,5.00,0.00,21.4,20.8,00.0,30.7,22.9,07.2,0001.2,0012.10,0016.35,0011.33
2022-02-26 07:03:00,,0830.0,5.00,0.00,21.4,20.7,00.0,30.6,22.8,07.2,0001.6,0012.12,0016.43,0011.31
2022-02-26 07:04:00,,0830.0,4.99,0.00,21.5,21.4,00.0,30.7,23.1,07.2,0001.7,0012.14,0016.57,0011.29
2022-02-26 07:05:00,,0830.0,5.00,0.00,21.6,22.2,00.0,30.7,23.4,07.1,0001.6,0012.15,0016.69,0011.25
2022-02-26 07:06:00,,0830.0,5.01,0.00,21.8,22.9,00.0,30.8,23.7,07.0,0001.0,0012.11,0016.70,0011.20
2022-02-26 07:07:00,,0830.0,4.98,0.00,21.9,22.6,00.0,30.8,23.7,06.9,0001.0,0012.06,0016.66,0011.14
2022-02-26 07:08:00,,0830.0,5.00,0.00,21.8,22.2,00.0,30.8,23.5,06.9,0001.1,0011.99,0016.57,0011.09
2022-02-26 07:09:00,,0830.0,5.01,0.00,21.8,21.7,00.0,30.8,23.4,06.9,0001.5,0011.95,0016.59,0011.04
2022-02-26 07:10:00,,0829.9,5.00,0.00,21.7,21.4,00.0,30.7,23.2,06.9,0001.2,0011.89,0016.51,0010.99
2022-02-26 07:11:00,,0829.9,5.01,0.00,21.6,21.2,00.0,30.7,23.1,06.9,0000.7,0011.84,0016.49,0010.94
2022-02-26 07:12:00,,0829.9,5.00,0.00,21.5,21.0,00.0,30.7,23.0,06.9,0000.8,0011.76,0016.41,0010.86
2022-02-26 07:13:00,,0829.9,5.01,0.00,21.4,20.8,00.0,30.7,22.9,06.9,0000.8,0011.64,0016.37,0010.74
2022-02-26 07:14:00,,0829.8,5.01,0.00,21.4,20.6,00.0,30.6,22.8,06.8,0000.8,0011.49,0016.31,0010.60
2022-02-26 07:15:00,,0829.9,4.98,0.00,21.4,21.2,00.0,30.6,23.0,06.9,0000.7,0011.34,0016.14,0010.51
2022-02-26 07:16:00,,0829.8,5.00,0.00,21.6,22.0,00.0,30.7,23.3,06.9,0001.1,0011.30,0016.22,0010.48
2022-02-26 07:17:00,,0829.9,5.02,0.00,21.7,22.7,00.0,30.7,23.6,06.8,0001.6,0011.26,0016.39,0010.45
2022-02-26 07:18:00,,0829.9,4.99,0.00,21.8,22.7,00.0,30.7,23.7,06.8,0001.7,0011.26,0016.42,0010.43
2022-02-26 07:19:00,,0829.9,5.00,0.00,21.8,22.3,00.0,30.8,23.6,06.8,0001.5,0011.22,0016.40,0010.40
2022-02-26 07:20:00,,0829.9,4.99,0.00,21.8,21.9,00.0,30.7,23.4,06.8,0001.2,0011.23,0016.55,0010.37
2022-02-26 07:21:00,,0829.9,5.01,0.00,21.7,21.4,00.0,30.7,23.3,06.9,0001.2,0011.24,0016.84,0010.38
2022-02-26 07:22:00,,0829.9,5.01,0.00,21.6,21.2,00.0,30.7,23.2,06.9,0001.4,0011.22,0016.82,0010.38
2022-02-26 07:23:00,,0829.9,5.00,0.00,21.6,21.1,00.0,30.7,23.2,06.9,0001.6,0011.22,0016.86,0010.39
2022-02-26 07:24:00,,0829.9,5.00,0.00,21.6,21.0,00.0,30.7,23.1,06.9,0001.5,0011.24,0016.85,0010.41
2022-02-26 07:25:00,,0829.9,5.00,0.00,21.5,20.9,00.0,30.7,23.1,06.9,0001.6,0011.29,0016.81,0010.46
2022-02-26 07:26:00,,0829.9,5.00,0.00,21.5,20.9,00.0,30.7,23.0,07.0,0001.2,0011.32,0016.95,0010.49
2022-02-26 07:27:00,,0829.9,4.99,0.00,21.6,21.6,00.0,30.7,23.3,06.9,0000.7,0011.21,0016.57,0010.43
2022-02-26 07:28:00,,0829.9,5.00,0.00,21.7,22.3,00.0,30.7,23.6,06.8,0000.6,0011.11,0016.13,0010.37
2022-02-26 07:29:00,,0830.0,4.99,0.00,21.9,22.9,00.0,30.8,23.8,06.7,0000.5,0011.04,0016.01,0010.31
2022-02-26 07:30:00,,0830.0,5.00,0.00,22.0,22.8,00.0,30.8,23.9,06.7,0000.4,0011.02,0016.04,0010.26
2022-02-26 07:31:00,,0830.0,5.00,0.00,22.0,22.4,00.0,30.8,23.8,06.7,0000.3,0010.93,0015.82,0010.19
2022-02-26 07:32:00,,0830.0,5.00,0.00,21.9,22.1,00.0,30.8,23.7,06.7,0000.3,0010.81,0015.44,0010.09
2022-02-26 07:33:00,,0830.0,5.00,0.00,21.9,21.8,00.0,30.8,23.5,06.6,0000.3,0010.76,0015.37,0010.02
2022-02-26 07:34:00,,0830.0,5.01,0.00,21.8,21.5,00.0,30.8,23.4,06.7,0000.4,0010.69,0015.31,0009.95
2022-02-26 07:35:00,,0830.0,5.01,0.00,21.8,21.4,00.0,30.8,23.4,06.7,0000.5,0010.64,0015.16,0009.89
2022-02-26 07:36:00,,0830.0,5.01,0.00,21.7,21.2,00.0,30.8,23.3,06.7,0000.3,0010.55,0015.05,0009.82
2022-02-26 07:37:00,,0830.0,4.99,0.00,21.7,21.1,00.0,30.8,23.2,06.7,0000.2,0010.48,0014.79,0009.75
2022-02-26 07:38:00,,0830.0,5.00,0.00,21.6,21.0,00.0,30.8,23.2,06.7,0000.3,0010.47,0014.82,0009.70
2022-02-26 07:39:00,,0830.0,4.99,0.00,21.7,21.5,00.0,30.8,23.3,06.7,0000.4,0010.43,0014.82,0009.64
2022-02-26 07:40:00,,0830.1,5.02,0.00,21.8,22.3,00.0,30.8,23.6,06.7,0000.3,0010.32,0014.69,0009.54
2022-02-26 07:41:00,,0830.0,4.99,0.00,22.0,22.9,00.0,30.9,23.9,06.6,0000.1,0010.24,0014.87,0009.44
2022-02-26 07:42:00,,0830.0,5.00,0.00,22.0,22.6,00.0,30.9,23.9,06.6,0000.1,0010.08,0014.66,0009.30
2022-02-26 07:43:00,,0830.0,4.99,0.00,22.0,22.3,00.0,30.9,23.8,06.6,0000.4,0009.97,0014.54,0009.17
2022-02-26 07:44:00,,0829.9,5.00,0.00,22.0,22.0,00.0,30.9,23.7,06.6,0001.0,0009.77,0014.61,0009.01
2022-02-26 07:45:00,,0829.8,5.01,0.00,21.9,21.7,00.0,30.9,23.6,06.6,0001.0,0009.59,0014.31,0008.85
2022-02-26 07:46:00,,0829.8,5.00,0.00,21.9,21.5,00.0,30.9,23.5,06.6,0001.3,0009.43,0014.09,0008.71
2022-02-26 07:47:00,,0829.8,5.01,0.00,21.8,21.3,00.0,30.9,23.4,06.6,0001.2,0009.30,0013.87,0008.58
2022-02-26 07:48:00,,0829.8,5.00,0.00,21.8,21.2,00.0,30.8,23.3,06.7,0001.4,0009.16,0013.72,0008.46
2022-02-26 07:49:00,,0829.8,5.01,0.00,21.7,21.0,00.0,30.8,23.2,06.7,0001.4,0009.06,0013.64,0008.36
2022-02-26 07:50:00,,0829.9,4.99,0.00,21.7,21.4,00.0,30.8,23.3,06.7,0001.3,0008.95,0013.47,0008.27
2022-02-26 07:51:00,,0829.9,5.00,0.00,21.8,22.1,00.0,30.9,23.6,06.6,0001.0,0008.90,0013.65,0008.23
2022-02-26 07:52:00,,0830.0,5.01,0.00,22.0,22.9,00.0,30.9,23.9,06.6,0001.6,0008.83,0013.55,0008.20
2022-02-26 07:53:00,,0830.0,5.01,0.00,22.1,23.0,00.0,30.9,24.0,06.5,0001.5,0008.85,0013.48,0008.24
2022-02-26 07:54:00,,0830.0,5.00,0.00,22.1,22.7,00.0,31.0,24.0,06.5,0001.1,0008.88,0013.54,0008.29
2022-02-26 07:55:00,,0829.9,4.99,0.00,22.1,22.4,00.0,31.0,23.8,06.5,0000.3,0009.01,0013.60,0008.41
2022-02-26 07:56:00,,0829.9,5.01,0.00,22.0,22.0,00.0,31.0,23.8,06.5,0000.2,0009.09,0013.70,0008.51
2022-02-26 07:57:00,,0829.9,5.00,0.00,22.0,21.8,00.0,31.0,23.6,06.5,0000.0,0009.19,0013.84,0008.60
2022-02-26 07:58:00,,0829.9,4.99,0.00,21.9,21.5,00.0,30.9,23.5,06.5,-000.3,0009.33,0014.11,0008.68
2022-02-26 07:59:00,,0829.9,4.99,0.00,21.9,21.4,00.0,30.9,23.5,06.6,0000.1,0009.40,0014.17,0008.77
